Погода в Дзарджане

Поиск расширенной информации на нашем сайте:

Полезная информация:

Новости сайта



02.01.2020
Опубликован Долгосрочный прогноз погоды по городам России и ближнего зарубежья на январь 2020 года.
Карты: Прогноз на январь и февраль 2020 года, Сравнение прогнозируемой аномалии приземной температуры воздуха на январь 2020 года по разным моделям.




Погода в Дзарджане - сегодня

Время (UTC), дата Ветер
(°,м/с) 
Видим.   Явления Облачность Т
(°С)
Тd
(°С)
f(%) Тe
(°С)
Pmin
(гПа)
dP
(гПа)
Po
(мм)
O2
(г/м3)
Тmin Tmax R s Состояние
почвы
18 29.11.20 160 (Ю) 20000 м  слаб. снег  10/0 средняя 
[As op]
-21.3 -23.8 80 -24  1021.8  762  335           
21 29.11.20 160 (Ю) 20000 м  слаб. снег  10/0 средняя 
[As op]
-21 -23.5 80 -25  1019.3  -2.5  761  334           
00 30.11.20 170 (Ю) 20000 м  слаб. снег  10/0 средняя 
[As op]
-20.7 -24 75 -26  1017.8  -1.5  759  333  -23.6    27  неравномерный
сухой снег
100% 
03 30.11.20 200 (Ю) 20000 м  слаб. снег  10/0 средняя 
[As op]
-19.4 -22.7 75 -24  1016.5  -1.3  758  331           
06 30.11.20 150 (ЮВ) 20000 м  слаб. снег  10/0 средняя 
[As op]
-19.1 -22.4 75 -24  1015.7  -0.8  758  330           
09 30.11.20 170 (Ю) 20000 м  слаб. снег  10/0 средняя 
[As op]
-19.8 -23.1 75 -25  1014.5  -1.2  757  331           
12 30.11.20 180 (Ю) 5{10}  20000 м  слаб. снег  10/0 средняя 
[As op]
-19.6 -22.9 75 -26  1013.3  -1.2  756  330    -19.1  0.9     
15 30.11.20 160 (Ю) 5{11}  20000 м  слаб. снег  10/0 средняя 
[As op]
-19.6 -22.9 75 -26  1011.7  -1.6  755  329           
18 30.11.20 140 (ЮВ) 6{12}  20000 м  {снег}  10/0 средняя 
[As op]
-20.1 -23.4 75 -27  1010.5  -1.2  754  330           
21 30.11.20 170 (Ю) 4{10}  20000 м    10/0 средняя 
[As op]
-20.3 -23.6 75 -26  1009.8  -0.6  753  330           
00 01.12.20 180 (Ю) 4{10}  1000 м  слаб. снег  10/0 средняя 
[As op]
-19.8 -23.1 75 -25  1008.8  -1  753  329  -20.3    28  неравномерный
сухой снег
100% 
03 01.12.20 180 (Ю) 6{12}  1000 м  слаб. снег  10/0 средняя 
[As op]
-22.4 -25.6 75 -30  1007.3  -1.5  752  332           
06 01.12.20 130 (ЮВ) 7{13}  1000 м  слаб. снег  10/0 средняя 
[As op]
-22.2 -25.4 75 -31  1004.9  -2.4  750  331           
09 01.12.20 160 (Ю) 8{13}  1000 м  слаб. снег  10/0 средняя 
[As op]
-19.3 -23.4 70 -28  1002.8  -2.1  748  326           
12 01.12.20 170 (Ю) 7{16}  1000 м  слаб. снег  10/0 средняя 
[As op]
-19.8 -23.1 75 -28  1002.1  -0.7  748  326    -19.3     
15 01.12.20 140 (ЮВ) 5{11}  1000 м  слаб. снег  10/0 средняя 
[As op]
-20.4 -23.7 75 -27  1003.2  -1.1  749  328           
21 01.12.20 170 (Ю) 6{11}  1000 м  слаб. снег  10/0 средняя 
[As op]
-21.5 -24.7 75 -29  1003.3  -0.3  749  329           
00 02.12.20 180 (Ю) 5{12}  1000 м  слаб. снег  10/0 средняя 
[As op]
-19.9 -23.2 75 -26  1002.2  -1.1  748  327  -21.5    31  неравномерный
сухой снег
100% 
03 02.12.20 150 (ЮВ) 8{14}  1000 м  слаб. снег  10/0 средняя 
[As op]
-19.7 -23 75 -28  999.1  -3.1  745  325           
06 02.12.20 170 (Ю) 7{13}  1000 м  слаб. снег  10/0 средняя 
[As op]
-19.7 -23 75 -28  996  -3.1  743  324           
09 02.12.20 170 (Ю) 5{14}  1000 м  слаб. снег  10/0 средняя 
[As op]
-19 -22.3 75 -25  995.9  -0.1  743  323           
12 02.12.20 150 (ЮВ) 5{10}  1000 м  слаб. снег  10/0 средняя 
[As op]
-23 -26.3 74 -30  998.2  2.3  747  330    -19     
15 02.12.20 150 (ЮВ) 5{10}  1000 м  слаб. снег  10/0 средняя 
[As op]
-24.5 -27.7 75 -32  999.2  0.9  745  332           
18 02.12.20 150 (ЮВ) 5{10}  1000 м  слаб. снег  10/0 средняя 
[As op]
-24.9 -28.1 75 -32  999.6  0.4  746  332           
21 02.12.20 170 (Ю) 5{10}  1000 м  слаб. снег  10/0 средняя 
[As op]
-24.7   997.6  -2  744             
Время (UTC), дата Ветер
(°,м/с) 
Видим.   Явления Облачность Т
(°С)
Тd
(°С)
f(%) Тe
(°С)
Pmin
(гПа)
dP
(гПа)
Po
(мм)
O2
(г/м3)
Тmin Tmax R s Состояние
почвы

Для получения пояснительной информации подведите курсор к названию столбца.

ПОГОДА в Дзарджане - архив

Всё, что Вы хотите узнать о погоде в Дзарджане - удобно и подробно!

Выберите нужную дату (начиная с 1 января 2019* года) и нажмите кнопку "Найти".
Будут отображены архивные сводки погоды по пункту Дзарджан, начиная с указанной даты.


Отображать данные в формате CSV (для использования в таблицах Excel)


Внимание! Наш архив погоды предназначен исключительно для личного некоммерческого использования в познавательных целях. Если Вам необходимы официальные справки о состоянии погоды (для производственных, юридических, коммерческих и т.п. целей), обращайтесь в органы Росгидромета.

*Примечание: данная дата относится к архиву по метеостанциям СССР (Россия, СНГ, Балтия).
Архив по метеостанциям Зарубежной Европы и Азии (кроме Китая) хранится 10 дней, по другим регионам земного шара (Китай, Африка, Америка, Австралия, Океания) - 1 день.

Дзарджан - район местоположения метеостанции


Название, широта, долгота, высота метеостанции:
Дзарджан 68.7°ш. 124°д. 39 м над ур. моря [Российская Федерация]

Дополнительная информация

В oтличие oт бoльшинства пoгoдных сайтoв мы публикуем пoдрoбную метеoинфoрмацию в детальнoм прoфессиoнальнoм фoрмате.

Характеристики температуры и влажнoсти вoздуха измеряются на высoте 2 м в тени вдали oт зданий и деревьев.
Скoрoсть ветра измеряется на высoте 10 м (на урoвне рoста челoвека скoрoсть ветра ниже в 1.5-2 раза). Если метеoстанция нахoдится в гoрoде или в лесу, тo скoрoсть ветра занижена на 2-4 м/с пo сравнению с oткрытым местoм. Скoрoсть ветра над акватoриями крупных рек и oзёр, а также на вершинах хoлмoв на 2-5 м/с выше, чем в oбычных услoвиях.
Атмoсфернoе давление в разных тoчках местнoсти мoжет значительнo oтличаться oт давления на метеoстанции, в зависимoсти oт услoвий рельефа (при пoдъёме на 10 м давление пoнижается примернo на 1 мм рт.ст.).